Regional Weather Roundup
Issued by NWS

Home | Current Version | Previous Version | Text Only | Print | Product List | Glossary On
Versions: 1 2 3 4 5 6 7 8 9 10 11 12 13 14 15 16 17 18 19 20 21 22 23 24 25 26 27 28 29 30 31 32 33 34 35 36 37 38 39 40 41 42 43 44 45 46 47 48 49 50
000
ASUS43 KMKX 280821
RWRWI

WISCONSIN REGIONAL WEATHER ROUNDUP
NATIONAL WEATHER SERVICE MILWAUKEE/SULLIVAN WI
300 AM CDT SAT MAY 28 2016

NOTE: "FAIR" INDICATES FEW OR NO CLOUDS BELOW 12,000 FEET WITH NO
SIGNIFICANT WEATHER AND/OR OBSTRUCTIONS TO VISIBILITY.

WIZ001-002-006>008-014>016-023>028-280900-
NORTHWEST WISCONSIN

CITY           SKY/WX    TMP DP  RH WIND       PRES   REMARKS
SUPERIOR ARPT  FOG       46  46 100 NE7       29.79F VSB 1
ASHLAND        CLOUDY    45  44  97 CALM      29.77F
HAYWARD        FOG       57  56  96 CALM      29.76S VSB 1/4
SIREN          CLOUDY    56  55  95 CALM      29.77S
CUMBERLAND     FOG       57  55  94 CALM      29.76F VSB 1/2
RICE LAKE      CLOUDY    58  57  96 CALM      29.77S FOG
CHETEK         FOG       60  60 100 NW3       29.76S VSB 1/4
LADYSMITH      CLOUDY    66  65  96 CALM      29.76F FOG
EAU CLAIRE     FOG       62  62 100 W3        29.75R VSB 1/2
MENOMONIE      FOG       63  63  99 CALM      29.75S VSB 1/4
NEW RICHMOND   CLOUDY    62  61  99 N3        29.75F FOG
OSCEOLA        CLOUDY    60  60 100 N5        29.78F FOG
$$

WIZ003>005-009-010-017-018-280900-
NORTH CENTRAL WISCONSIN

CITY           SKY/WX    TMP DP  RH WIND       PRES   REMARKS
MANITOWISH WTR NOT AVBL
ARBOR VITAE    LGT RAIN  65  64  94 S3        29.78S
WOODRUFF       LGT RAIN  65  64  94 S3        29.78S
RHINELANDER    CLOUDY    65  64  97 SE5       29.79F
EAGLE RIVER    DRIZZLE   64  64 100 SE5       29.79S
LAND O LAKES   CLOUDY    64  63  96 SE6       29.80F
PHILLIPS       CLOUDY    65  64  99 SE5       29.76F
TOMAHAWK       CLOUDY    64  63  95 CALM      29.78F FOG
MEDFORD        CLOUDY    65  65 100 CALM      29.76S
MERRILL        CLOUDY    66  66 100 CALM      29.78F FOG
$$

WIZ029-030-035-036-043>047-280900-
CENTRAL WISCONSIN

CITY           SKY/WX    TMP DP  RH WIND       PRES   REMARKS
WAUSAU         CLOUDY    68  66  93 S6        29.76R
MOSINEE        CLOUDY    64  64 100 S6        29.79R FOG
MARSHFIELD     CLOUDY    68  65  90 S6        29.76R FOG
STEVENS POINT  CLOUDY    65  65  99 SE5       29.78R FOG
WAUPACA        CLOUDY    69  69 100 SE3       29.78S FOG
WAUTOMA        CLOUDY    68  67  96 S6        29.79R
WISC RAPIDS    CLOUDY    67  64  90 CALM      29.77S
CAMP DOUGLAS   CLOUDY    66 N/A N/A SE2       29.76R
$$

WIZ011>013-019>022-031-037>040-048>050-280900-
NORTHEAST WISCONSIN

CITY           SKY/WX    TMP DP  RH WIND       PRES   REMARKS
ANTIGO         CLOUDY    64  64 100 SE6       29.79F FOG
SHAWANO        CLOUDY    66  65  94 CALM      29.79S FOG
OCONTO         CLOUDY   N/A N/A N/A CALM      29.79S
STURGEON BAY   NOT AVBL
GREEN BAY      CLOUDY    67  65  93 S7        29.79F
MANITOWOC      LGT RAIN  59  58  96 S6        29.83S FOG
APPLETON       CLOUDY    66  66 100 S8        29.78S FOG
CLINTONVILLE   CLOUDY    64  64 100 CALM      29.78S FOG
OSHKOSH        MOCLDY    68  65  90 S14       29.79S
$$

WIZ032>034-041-042-053>061-280900-
SOUTHWEST WISCONSIN

CITY           SKY/WX    TMP DP  RH WIND       PRES   REMARKS
LA CROSSE      CLOUDY    68  66  93 E6        29.73S
SPARTA         CLOUDY    63  63 100 CALM      29.75S
VIROQUA        CLOUDY    66  66 100 SE6       29.76R
BOSCOBEL       LGT RAIN  70  67  90 VRB5      29.73S FOG
PRAIRIE DU CHI RAIN      67  65  94 CALM      29.73S
PLATTEVILLE    CLOUDY    69  68  97 SE10      29.75S
$$

WIZ056-057-062-063-064-067-068-280900-
SOUTH CENTRAL WISCONSIN

CITY           SKY/WX    TMP DP  RH WIND       PRES   REMARKS
REEDSBURG      CLOUDY    69  67  95 SE3       29.76R
BARABOO/DELLS  CLOUDY    70  65  86 S10       29.77S
LONE ROCK      LGT RAIN  70  67  90 SE7       29.76R FOG
MINERAL POINT  CLOUDY    68  68 100 SE9       29.76F
MADISON        CLOUDY    69  66  90 S15       29.79R
MIDDLETON      CLOUDY    69  67  92 S10G16    29.79S
WATERTOWN      CLOUDY    66  66 100 S6        29.82S
MONROE         CLOUDY    68  64  88 S10G17    29.78F
JANESVILLE     CLOUDY    70  68  94 S9        29.80F
$$

WIZ051-052-058>065-066-070>072-280900-
SOUTHEAST WISCONSIN

CITY           SKY/WX    TMP DP  RH WIND       PRES   REMARKS
MILWAUKEE      CLOUDY    70  64  81 S12       29.84R
WAUKESHA       MOCLDY    66  63  88 S6        29.85S
MILWAUKEE/TIMM MOCLDY    68  63  83 S9        29.84S
RACINE         CLOUDY    65  61  87 S6        29.86S
BURLINGTON     CLOUDY    67  64  87 S6        29.83F
KENOSHA        CLOUDY    70  63  78 S8        29.85S
FOND DU LAC    CLOUDY    70  66  87 S13       29.81R
SHEBOYGAN      CLOUDY    63  60  90 S8        29.83R
WEST BEND      CLOUDY    68  63  83 S9        29.84R
JUNEAU         LGT RAIN  66  64  94 S15G25    29.83R
$$

LSZ147-162-280900-
LAKE SUPERIOR

STATION/POSITION TIME  TEMP    WIND        PRES    WAVE
                       AIR SEA DIR/SP/G            HT/PER
                 (UTC) (F)     (DEG/KT/KT) (MB)    (FT/S)
W MID LAKE BUOY  0750   41 38   60/ 16/ 17 1008.5F   3/ 4
DEVILS ISLAND    0800   43      90/ 16/ 18 1008.5F
SAXON HARBOR     0700   47      CALM  /  2 1007.8
$$

LMZ867-665-643>646-280900-
LAKE MICHIGAN

STATION/POSITION TIME  TEMP    WIND        PRES    WAVE
                       AIR SEA DIR/SP/G            HT/PER
                 (UTC) (F)     (DEG/KT/KT) (MB)    (FT/S)
CHAMBERS ISLAND  0740   61     150/  3/  7 1009.5F
N MID LAKE BUOY  0750   54 46  170/ 12/ 14 1010.3F   1
NORTHPORT PIER   0700   60     150/  9/ 15 1010.2F
SISTER BAY       0705   59     150/ 12/ 17   N/A
ALGOMA LAKESHORE 0732             CALM       N/A
KEWAUNEE LAKESHO 0700   53     170/  6/  9 1009.2F
SHEBOYGAN LAKESH 0800   58     180/ 18/ 20 1010.4R
PORT WASHINGTON  0740   59     200/  8/ 11 1011.2R
S MID LAKE BUOY  0750   55 50  150/ 12/ 14 1011.5R   1/ 4
KENOSHA   LAKESH 0800   56     170/ 11/ 13 1010.8S
$$

TC  - TEMPERATURE IN CELSIUS
VSB - VISIBILITY IN STATUTE MILES
WCI - WIND CHILL INDEX
HX  - HEAT INDEX




USA.gov is the U.S. government's official web portal to all federal, state and local government web resources and services.